Regional Weather Roundup
Issued by NWS

Home | Current Version | Previous Version | Text Only | Print | Product List | Glossary On
Versions: 1 2 3 4 5 6 7 8 9 10 11 12 13 14 15 16 17 18 19 20 21 22 23 24 25 26 27 28 29 30 31 32 33 34 35 36 37 38 39 40 41 42 43 44 45 46 47 48 49 50
688
ASUS45 KBOI 180210
RWRID

IDAHO REGIONAL WEATHER ROUNDUP
NATIONAL WEATHER SERVICE BOISE ID
700 PM MST FRI NOV 17 2017

NOTE: "FAIR" INDICATES FEW OR NO CLOUDS BELOW 12000 FEET
WITH NO SIGNIFICANT WEATHER AND/OR OBSTRUCTIONS TO VISIBILITY

IDZ012-014-180300-
SOUTHWEST IDAHO


CITY           SKY/WX    TMP DP  RH WIND       PRES   REMARKS
BOISE          CLEAR     39  23  52 MISG      30.22R
CALDWELL       CLEAR     40  24  53 NW5       30.25R
MOUNTAIN HOME  CLEAR     35  26  68 W6        30.23R WCI  30
$$

IDZ016-017-180300-
SOUTHCENTRAL IDAHO


CITY           SKY/WX    TMP DP  RH WIND       PRES   REMARKS
BURLEY         CLEAR     34  24  67 W15G21    30.18R WCI  24
JEROME         CLEAR     34  24  67 W13       30.20R WCI  25
TWIN FALLS     CLEAR     32  25  75 SW17      30.20R WCI  21
$$

IDZ019>023-180300-
SOUTHEAST IDAHO


CITY           SKY/WX    TMP DP  RH WIND       PRES   REMARKS
IDAHO FALLS    CLEAR     32  22  66 W12       30.08R WCI  23
POCATELLO      CLEAR     34  24  67 W17       30.12R WCI  23
REXBURG        CLEAR     31  15  52 VRB3      30.06R
$$

IDZ006-010-011-018-031-032-180300-
CENTRAL IDAHO MOUNTAINS


CITY           SKY/WX    TMP DP  RH WIND       PRES   REMARKS
MCCALL         PTCLDY    30  19  63 W6        30.14R WCI  24
HAILEY         PTCLDY    30  30 100 CALM      30.12R
STANLEY          N/A     25  13  60 NW8G18    30.12R WCI  16
SALMON         MOCLDY    35  12  38 VRB3      30.11
CHALLIS        CLOUDY    32  15  49 SW6       30.10R WCI  26
$$

IDZ002-004-006-007-026-180300-
NORTHERN IDAHO


CITY           SKY/WX    TMP DP  RH WIND       PRES   REMARKS
LEWISTON       PTCLDY    39  29  67 SE6       30.19R WCI  35
LOWELL           N/A     38  36  92 CALM      30.24R
COEUR D`ALENE  CLOUDY    40  27  59 SW15      30.10R WCI  32
MULLAN PASS    LGT SNOW  22  18  85 VRB7      29.99R FOG     WCI  13
$$




USA.gov is the U.S. government's official web portal to all federal, state and local government web resources and services.